Regional Weather Roundup
Issued by NWS Northern Indiana

Home | Current Version | Previous Version | Text Only | Print | Product List | Glossary Off
Versions: 1 2 3 4 5 6 7 8 9 10 11 12 13 14 15 16 17 18 19 20 21 22 23 24 25 26 27 28 29 30 31 32 33 34 35 36 37 38 39 40 41 42 43 44 45 46 47 48 49 50

000
ASUS43 KIWX 240700
RWRIWX

KIWX WEATHER ROUNDUP
NATIONAL WEATHER SERVICE NORTHERN INDIANA
300 AM EDT MON APR 24 2017

NOTE: "FAIR" INDICATES FEW OR NO CLOUDS BELOW 12,000 FEET WITH NO
SIGNIFICANT WEATHER AND/OR OBSTRUCTIONS TO VISIBILITY.

* THESE STATIONS ARE NOT UNDER NWS QUALITY CONTROL. THEY ALSO MAY NOT
  REPORT WEATHER SUCH AS PRECIPITATION OR FOG.

INZ001>027-240800-
NORTHERN INDIANA

CITY           SKY/WX    TMP DP  RH WIND       PRES   REMARKS
KNOX*          CLEAR     41  19  42 N3        30.02F
SOUTH BEND     CLEAR     40  32  73 N3        30.03F
GOSHEN         CLOUDY    46  36  68 NE3       30.02F
MONTICELLO*    CLEAR     49  32  51 NE3       30.00S
WARSAW*        PTCLDY    43  37  81 CALM      30.01F
ANGOLA*        CLEAR     41  39  93 CALM      30.02F
FORT WAYNE     PTCLDY    45  30  55 NE5       30.01F
PERU/GRISSOM   CLEAR     48  32  53 N3        29.99F

$$
INZ028>050-240800-
CENTRAL INDIANA

CITY           SKY/WX    TMP DP  RH WIND       PRES   REMARKS
LAFAYETTE      CLEAR     45  38  76 CALM      30.00F
KOKOMO*        CLEAR     44  33  65 E3        30.01F
MUNCIE*        CLEAR     44  31  60 E5        29.99F
INDIANAPOLIS   CLEAR     49  33  54 NE7       29.98S

$$
MIZ043>046-050>051-056>058-064>065-071>073-077>080-240800-
SOUTHWEST LOWER MICHIGAN

CITY           SKY/WX    TMP DP  RH WIND       PRES   REMARKS
BATTLE CREEK   PTCLDY    47  40  76 NE3       30.05F
BENTON HARBOR  CLEAR     38  32  79 CALM      30.03F
HOLLAND        CLEAR     43  36  76 E6        30.04F
GRAND RAPIDS   CLEAR     44  40  85 E8        30.05F
KALAMAZOO      CLOUDY    44  33  65 CALM      30.04F

$$
OHZ001>008-015>018-024>025-240800-
NORTHWEST OHIO

CITY           SKY/WX    TMP DP  RH WIND       PRES   REMARKS
DEFIANCE       CLEAR     40  34  79 NE3       30.03F
FINDLAY        CLEAR     46  31  55 E6        30.01F
TOLEDO EXPRESS CLEAR     41  33  73 CALM      30.03F
TOLEDO METCALF CLEAR     44  36  73 NE3       30.04F
LIMA           CLEAR     43  33  68 E7        30.00F

$$
AND FOR LAKE MICHIGAN COASTAL AND OPEN LAKE BUOY OBSERVATIONS

STATION/POSITION TEMP    WIND        PRES    VSBY  WAVE
                 AIR SEA DIR/SP/G                  HT/PER
                 (F)     (DEG/KT/KT) (MB)    (MI)  (FT/S)
CALUMET HARBOR    43     350/  7/ 10 1016.7S
MICHIGAN CITY     47     330/  7/  8   N/A
BURNS HARBOR      46     360/  5/  6 1017.3F
SOUTH LAKE BUOY   40 40  360/  8/ 10 1018.3          3/ 6
4 MI NW BRIDGMAN  50 51  340/  4/  4 1017.3S         1

$$
&&



USA.gov is the U.S. government's official web portal to all federal, state and local government web resources and services.